Location: B�hl
(48.6968°N, 8.1352°E)
Time: 08:31:55
(UTC+00:00)

USA 305 - Pass Details

Date: 08 March 2021
Orbit: 567 x 574 km, 54.0° (Epoch: 13 April)

Event Time Altitude Azimuth Distance (km) Brightness Sun altitude
Rises 18:12:56 0° 293° (WNW) 2,783 8.0 -9.2°
Reaches altitude 10° 18:15:15 10° 299° (WNW) 1,882 6.7 -9.6°
Maximum altitude 18:19:25 50° 15° (NNE) 734 3.4 -10.3°
Enters shadow 18:22:45 15° 88° (E) 1,564 4.5 -10.8°
